| time (UTC) | temp C | wind direction | speed KPH | gust KPH | rain 1hr cm | rain 24hr cm | rain mn cm | humidity % | barometer mb |
| 20260506231535 | 14 | 192 | 1.6 | 6.4 | 0.00 | 0.53 | 0.53 | 93 | 1009.7 |
| 20260506230036 | 14 | 199 | 1.6 | 8.0 | 0.00 | 0.53 | 0.53 | 93 | 1009.8 |
| 20260506224531 | 14 | 212 | 1.6 | 11.3 | 0.03 | 0.53 | 0.53 | 93 | 1009.7 |
| 20260506223035 | 14 | 197 | 1.6 | 8.0 | 0.03 | 0.53 | 0.53 | 93 | 1009.6 |
| 20260506221549 | 14 | 193 | 1.6 | 8.0 | 0.03 | 0.53 | 0.53 | 93 | 1009.6 |
| 20260506214533 | 15 | 205 | 1.6 | 9.7 | 0.00 | 0.51 | 0.51 | 93 | 1009.6 |
| 20260506213035 | 15 | 190 | 1.6 | 14.5 | 0.03 | 0.51 | 0.51 | 93 | 1009.7 |
| 20260506211548 | 15 | 190 | 3.2 | 12.9 | 0.13 | 0.51 | 0.51 | 93 | 1009.7 |
| 20260506210034 | 15 | 190 | 1.6 | 9.7 | 0.25 | 0.51 | 0.51 | 92 | 1010.0 |
| 20260506204533 | 15 | 197 | 1.6 | 8.0 | 0.28 | 0.51 | 0.48 | 92 | 1010.2 |
| 20260506203032 | 15 | 191 | 1.6 | 12.9 | 0.25 | 0.48 | 0.38 | 92 | 1010.3 |
| 20260506201533 | 15 | 217 | 1.6 | 8.0 | 0.15 | 0.38 | 0.25 | 91 | 1010.3 |
| 20260506200032 | 15 | 192 | 3.2 | 9.7 | 0.03 | 0.25 | 0.23 | 91 | 1010.4 |
| 20260506194531 | 15 | 207 | 3.2 | 11.3 | 0.03 | 0.23 | 0.23 | 90 | 1010.5 |
| 20260506193034 | 15 | 206 | 3.2 | 12.9 | 0.05 | 0.23 | 0.23 | 90 | 1010.7 |
| 20260506191535 | 15 | 210 | 3.2 | 14.5 | 0.10 | 0.23 | 0.23 | 91 | 1010.7 |
| 20260506190036 | 15 | 192 | 4.8 | 19.3 | 0.13 | 0.23 | 0.20 | 90 | 1010.7 |
| 20260506184549 | 15 | 189 | 4.8 | 16.1 | 0.13 | 0.20 | 0.18 | 90 | 1011.0 |
| 20260506183033 | 15 | 197 | 1.6 | 12.9 | 0.13 | 0.18 | 0.13 | 89 | 1011.1 |
| 20260506181534 | 15 | 182 | 3.2 | 14.5 | 0.10 | 0.13 | 0.10 | 89 | 1011.0 |
| 20260506180034 | 15 | 187 | 3.2 | 16.1 | 0.10 | 0.10 | 0.08 | 88 | 1011.1 |
| 20260506174533 | 16 | 174 | 3.2 | 14.5 | 0.08 | 0.08 | 0.05 | 86 | 1011.4 |
| 20260506171548 | 17 | 193 | 1.6 | 9.7 | 0.03 | 0.03 | 0.00 | 81 | 1012.2 |
| 20260506164531 | 18 | 217 | 3.2 | 12.9 | 0.00 | 0.00 | 0.00 | 75 | 1012.1 |
| 20260506163034 | 18 | 199 | 4.8 | 16.1 | 0.00 | 0.00 | 0.00 | 72 | 1011.9 |
| 20260506161533 | 19 | 209 | 4.8 | 14.5 | 0.00 | 0.00 | 0.00 | 71 | 1011.9 |
| 20260506160033 | 19 | 198 | 4.8 | 14.5 | 0.00 | 0.00 | 0.00 | 70 | 1012.2 |
| 20260506154532 | 19 | 205 | 3.2 | 17.7 | 0.00 | 0.00 | 0.00 | 70 | 1012.2 |
| 20260506153032 | 19 | 204 | 3.2 | 11.3 | 0.00 | 0.00 | 0.00 | 71 | 1012.2 |
| 20260506151533 | 19 | 211 | 4.8 | 14.5 | 0.00 | 0.00 | 0.00 | 70 | 1012.2 |
| 20260506150033 | 19 | 212 | 4.8 | 12.9 | 0.00 | 0.00 | 0.00 | 71 | 1012.3 |
| 20260506144535 | 18 | 209 | 4.8 | 12.9 | 0.00 | 0.00 | 0.00 | 72 | 1012.5 |
| 20260506143034 | 18 | 191 | 4.8 | 11.3 | 0.00 | 0.00 | 0.00 | 73 | 1012.6 |
| 20260506141532 | 18 | 197 | 3.2 | 12.9 | 0.00 | 0.00 | 0.00 | 75 | 1012.6 |
| 20260506140036 | 18 | 240 | 1.6 | 11.3 | 0.00 | 0.00 | 0.00 | 75 | 1012.6 |
| 20260506134535 | 17 | 182 | 4.8 | 11.3 | 0.00 | 0.00 | 0.00 | 76 | 1012.5 |
| 20260506133033 | 17 | 180 | 3.2 | 17.7 | 0.00 | 0.00 | 0.00 | 77 | 1012.6 |
| 20260506131534 | 17 | 215 | 3.2 | 12.9 | 0.00 | 0.00 | 0.00 | 79 | 1012.7 |
| 20260506130032 | 16 | 215 | 3.2 | 17.7 | 0.00 | 0.00 | 0.00 | 80 | 1012.9 |
| 20260506124534 | 16 | 201 | 3.2 | 11.3 | 0.00 | 0.00 | 0.00 | 79 | 1013.3 |
| 20260506123032 | 16 | 197 | 4.8 | 16.1 | 0.00 | 0.00 | 0.00 | 80 | 1013.3 |
| 20260506120048 | 15 | 200 | 3.2 | 14.5 | 0.00 | 0.00 | 0.00 | 82 | 1013.2 |
| 20260506114530 | 15 | 200 | 1.6 | 12.9 | 0.00 | 0.00 | 0.00 | 83 | 1013.4 |
| 20260506111547 | 15 | 210 | 1.6 | 12.9 | 0.00 | 0.00 | 0.00 | 84 | 1013.6 |
| 20260506110034 | 14 | 212 | 3.2 | 11.3 | 0.00 | 0.00 | 0.00 | 85 | 1013.5 |
| 20260506104532 | 14 | 220 | 1.6 | 11.3 | 0.00 | 0.00 | 0.00 | 85 | 1013.5 |
| 20260506103034 | 13 | 188 | 1.6 | 11.3 | 0.00 | 0.00 | 0.00 | 86 | 1013.3 |
| 20260506101532 | 13 | 186 | 1.6 | 11.3 | 0.00 | 0.00 | 0.00 | 85 | 1013.2 |
| 20260506100055 | 13 | 176 | 1.6 | 9.7 | 0.00 | 0.00 | 0.00 | 85 | 1013.2 |
| 20260506094533 | 13 | 195 | 1.6 | 11.3 | 0.00 | 0.00 | 0.00 | 85 | 1013.2 |
| 20260506093035 | 14 | 173 | 1.6 | 9.7 | 0.00 | 0.00 | 0.00 | 84 | 1013.2 |
| 20260506091532 | 14 | 184 | 1.6 | 12.9 | 0.00 | 0.00 | 0.00 | 84 | 1013.3 |
| 20260506090034 | 14 | 184 | 1.6 | 11.3 | 0.00 | 0.00 | 0.00 | 84 | 1013.3 |
| 20260506084531 | 14 | 187 | 1.6 | 8.0 | 0.00 | 0.00 | 0.00 | 83 | 1013.4 |
| 20260506083033 | 14 | 187 | 1.6 | 8.0 | 0.00 | 0.00 | 0.00 | 82 | 1013.3 |
| 20260506081531 | 14 | 202 | 1.6 | 6.4 | 0.00 | 0.00 | 0.00 | 82 | 1013.2 |
| 20260506073034 | 15 | 187 | 1.6 | 11.3 | 0.00 | 0.00 | 0.00 | 80 | 1013.5 |
| 20260506071532 | 15 | 192 | 1.6 | 17.7 | 0.00 | 0.00 | 0.00 | 80 | 1013.4 |
| 20260506061532 | 15 | 195 | 0.0 | 9.7 | 0.00 | 0.00 | 0.00 | 78 | 1013.2 |
| 20260506044532 | 17 | 179 | 4.8 | 17.7 | 0.00 | 0.00 | 0.00 | 71 | 1013.5 |
| 20260506043031 | 17 | 191 | 3.2 | 20.9 | 0.00 | 0.00 | 0.00 | 71 | 1013.4 |
| 20260506040057 | 17 | 188 | 3.2 | 11.3 | 0.00 | 0.00 | 0.00 | 69 | 1013.5 |
| 20260506034542 | 17 | 179 | 3.2 | 11.3 | 0.00 | 0.00 | 0.00 | 68 | 1013.6 |
| 20260506033040 | 17 | 192 | 3.2 | 16.1 | 0.00 | 0.00 | 0.00 | 68 | 1013.5 |
| 20260506031544 | 17 | 185 | 3.2 | 11.3 | 0.00 | 0.00 | 0.00 | 68 | 1013.5 |
| 20260506024539 | 17 | 199 | 4.8 | 11.3 | 0.00 | 0.00 | 0.00 | 67 | 1013.4 |
| 20260506023041 | 17 | 208 | 3.2 | 11.3 | 0.00 | 0.00 | 0.00 | 66 | 1013.3 |
| 20260506021541 | 17 | 181 | 3.2 | 14.5 | 0.00 | 0.00 | 0.00 | 66 | 1013.4 |
| 20260506020042 | 17 | 183 | 3.2 | 12.9 | 0.00 | 0.00 | 0.00 | 65 | 1013.3 |
| 20260506014556 | 17 | 203 | 3.2 | 12.9 | 0.00 | 0.00 | 0.00 | 64 | 1013.2 |
| 20260506013041 | 17 | 185 | 3.2 | 9.7 | 0.00 | 0.00 | 0.00 | 63 | 1013.0 |
| 20260506011541 | 18 | 198 | 1.6 | 16.1 | 0.00 | 0.00 | 0.00 | 62 | 1012.8 |
| 20260506010042 | 18 | 177 | 3.2 | 12.9 | 0.00 | 0.00 | 0.00 | 61 | 1012.7 |
| 20260506004541 | 18 | 185 | 3.2 | 17.7 | 0.00 | 0.00 | 0.00 | 61 | 1012.6 |
| 20260506001541 | 19 | 198 | 3.2 | 14.5 | 0.00 | 0.00 | 0.00 | 60 | 1011.9 |
| 20260506000041 | 19 | 194 | 3.2 | 19.3 | 0.00 | 0.00 | 0.00 | 59 | 1011.7 |